Weather History for Middletown, OH

Change the Weather History Date:

Thursday, July 4, 2013

  Actual Average (KDAY) Record (KDAY)
Temperature  
Mean Temperature 72 °F 74 °F  
Max Temperature 75 °F 84 °F 104 °F (1897)
Min Temperature 68 °F 64 °F 49 °F (1968)
Degree Days  
Heating Degree Days 0 0  
Month to date heating degree days 0  
Since 1 June heating degree days 22  
Since 1 July heating degree days 0  
Cooling Degree Days 6 9  
Month to date cooling degree days 36  
Year to date cooling degree days 296  
Since 1 June cooling degree days 226  
Growing Degree Days 22 (Base 50)    
Moisture  
Dew Point 71 °F    
Average Humidity 100    
Maximum Humidity 100    
Minimum Humidity 92    
Precipitation  
Precipitation 0.00 in 0.14 in 2.05 in (1906)
Month to date precipitation 0.55  
Year to date precipitation 21.76  
Snow  
Snow 0.00 in 0.00 in - (0.0)
Month to date snowfall 0.0  
Since 1 June snowfall 0.0  
Since 1 July snowfall 0.0  
Snow Depth -    
Sea Level Pressure  
Sea Level Pressure 30.15 in    
Wind  
Wind Speed 3 mph (SSE)    
Max Wind Speed 10 mph    
Max Gust Speed 20 mph    
Visibility 8 miles    
Events Rain    
T = Trace of Precipitation, MM = Missing Value Source: NWS Daily Summary

Daily Weather History Graph

Daily Weather History Graph

Search for Another Location

Airport:

Trip Planner

Search our weather history database for the weather conditions in past years. The results will help you decide how hot, cold, wet, or windy it might be!

Date:

Astronomy

Jul. 04, 2013 Rise Set
Actual Time 6:15 AM EDT 9:08 PM EDT
Civil Twilight 5:43 AM EDT 9:40 PM EDT
Nautical Twilight 5:02 AM EDT 10:20 PM EDT
Astronomical Twilight 4:16 AM EDT 11:07 PM EDT
Moon 3:31 AM EDT (7/4) 6:12 PM EDT (7/4)
Length of Visible Light 15h 56m
Length of Day
14h 52m
Waning Crescent, 11% of the Moon is Illuminated
Jul 4
Waning Crescent
Jul 8
New
Jul 15
First Quarter
Jul 22
Full
Jul 29
Last Quarter

Hourly Weather History & Observations

Time (EDT) Temp. Dew Point Humidity Pressure Visibility Wind Dir Wind Speed Gust Speed Precip Events Conditions
12:15 AM 75.2 °F 72.7 °F 92% 30.13 in 10.0 mi SSE 4.6 mph - N/A   Overcast
12:35 AM 72.7 °F 71.4 °F 96% 30.13 in 10.0 mi SSE 9.2 mph - N/A Rain Light Rain
12:55 AM 70.2 °F 70.2 °F 100% 30.14 in 4.0 mi SE 10.4 mph 19.6 mph N/A Rain Rain
1:15 AM 68.9 °F 68.9 °F 100% 30.14 in 5.0 mi SSE 5.8 mph - N/A Rain Light Rain
1:35 AM 69.4 °F 69.4 °F 100% 30.14 in 10.0 mi Calm Calm - N/A   Overcast
1:55 AM 68.9 °F 68.9 °F 100% 30.14 in 7.0 mi Calm Calm - N/A   Overcast
2:15 AM 68.9 °F 68.9 °F 100% 30.15 in 10.0 mi Calm Calm - N/A   Overcast
2:35 AM 68.9 °F 68.9 °F 100% 30.14 in 7.0 mi Calm Calm - N/A   Overcast
2:55 AM 68.9 °F 68.9 °F 100% 30.14 in 5.0 mi Calm Calm - N/A   Overcast
3:15 AM 68.5 °F 68.5 °F 100% 30.14 in 7.0 mi Calm Calm - N/A   Overcast
3:35 AM 68.9 °F 68.9 °F 100% 30.13 in 7.0 mi Calm Calm - N/A   Mostly Cloudy
3:55 AM 68.2 °F 68.2 °F 100% 30.13 in 3.0 mi Calm Calm - N/A Rain Light Rain
4:15 AM 70.2 °F 70.2 °F 100% 30.14 in 7.0 mi SSW 3.5 mph - N/A   Mostly Cloudy
4:35 AM 70.2 °F 70.2 °F 100% 30.14 in 7.0 mi Calm Calm - N/A   Mostly Cloudy
4:55 AM 69.3 °F 69.3 °F 100% 30.14 in 10.0 mi SSW 3.5 mph - N/A   Scattered Clouds
5:15 AM 69.4 °F 69.4 °F 100% 30.14 in 10.0 mi Calm Calm - N/A   Overcast
5:35 AM 69.1 °F 69.1 °F 100% 30.15 in 10.0 mi Calm Calm - N/A   Overcast
5:55 AM 70.2 °F 70.2 °F 100% 30.15 in 10.0 mi Calm Calm - N/A   Overcast
6:15 AM 70.2 °F 70.2 °F 100% 30.15 in 10.0 mi Calm Calm - N/A   Overcast
6:35 AM 70.2 °F 70.2 °F 100% 30.15 in 10.0 mi Calm Calm - N/A   Overcast
6:55 AM 70.2 °F 70.2 °F 100% 30.16 in 10.0 mi SSE 4.6 mph - N/A   Overcast
7:15 AM 70.2 °F 70.2 °F 100% 30.15 in 10.0 mi SSE 4.6 mph - N/A   Overcast
7:35 AM 70.2 °F 70.2 °F 100% 30.17 in 10.0 mi Calm Calm - N/A   Overcast
8:15 AM 72.5 °F 72.3 °F 99% 30.17 in 10.0 mi South 4.6 mph - N/A   Overcast
8:35 AM 72.7 °F 72.5 °F 99% 30.18 in 10.0 mi South 4.6 mph - N/A   Overcast
8:55 AM 72.7 °F 72.5 °F 99% 30.18 in 10.0 mi South 3.5 mph - N/A   Overcast
9:35 AM 72.7 °F 72.3 °F 99% 30.18 in 10.0 mi South 4.6 mph - N/A Rain Light Rain
9:55 AM 72.7 °F 72.0 °F 98% 30.18 in 10.0 mi South 5.8 mph - N/A   Light Drizzle
10:35 AM 68.9 °F 68.9 °F 100% 30.18 in 7.0 mi South 6.9 mph - N/A Rain Light Rain
11:15 AM 70.2 °F 70.2 °F 100% 30.19 in 7.0 mi SW 5.8 mph - N/A Rain Rain
12:55 PM 69.6 °F 69.6 °F 100% 30.19 in 10.0 mi SSE 6.9 mph - N/A Rain Light Rain
1:15 PM 70.2 °F 70.2 °F 100% 30.19 in 7.0 mi SSE 4.6 mph - N/A Rain Light Rain
1:35 PM 70.9 °F 70.9 °F 100% 30.18 in 7.0 mi SSW 4.6 mph - N/A Rain Light Rain
2:15 PM 72.7 °F 72.7 °F 100% 30.18 in 7.0 mi South 5.8 mph - N/A Rain Light Rain
2:55 PM 72.7 °F 72.7 °F 100% 30.17 in 10.0 mi South 5.8 mph - N/A Rain Light Rain
3:15 PM 72.7 °F 72.7 °F 100% 30.17 in 10.0 mi SSE 5.8 mph - N/A Rain Light Rain
3:35 PM 72.7 °F 72.7 °F 100% 30.16 in 7.0 mi SSE 4.6 mph - N/A Rain Light Rain
3:55 PM 72.7 °F 72.7 °F 100% 30.16 in 10.0 mi SE 5.8 mph - N/A Rain Light Rain
4:15 PM 72.7 °F 72.7 °F 100% 30.15 in 10.0 mi SSE 5.8 mph - N/A Rain Light Rain
4:35 PM 72.7 °F 72.7 °F 100% 30.15 in 10.0 mi SSE 6.9 mph - N/A Rain Light Rain
4:55 PM 70.2 °F 70.2 °F 100% 30.14 in 7.0 mi SSE 5.8 mph - N/A Rain Light Rain
5:15 PM 70.0 °F 70.0 °F 100% 30.14 in 7.0 mi South 3.5 mph - N/A Rain Light Rain
5:35 PM 70.2 °F 70.2 °F 100% 30.13 in 10.0 mi South 3.5 mph - N/A Rain Light Rain
6:15 PM 72.7 °F 72.7 °F 100% 30.11 in 10.0 mi Calm Calm - N/A   Overcast
6:35 PM 72.7 °F 72.7 °F 100% 30.12 in 10.0 mi Calm Calm - N/A Rain Rain
9:15 PM 72.7 °F 72.7 °F 100% 30.10 in 10.0 mi SE 3.5 mph - N/A   Mostly Cloudy
9:35 PM 72.7 °F 72.7 °F 100% 30.11 in 10.0 mi South 3.5 mph - N/A Rain Light Rain
9:55 PM 72.7 °F 72.7 °F 100% 30.11 in 10.0 mi Calm Calm - N/A   Drizzle
10:15 PM 72.7 °F 72.7 °F 100% 30.11 in - Calm Calm - N/A Rain Light Rain
10:35 PM 72.7 °F 72.7 °F 100% 30.12 in 3.0 mi Calm Calm - N/A Rain Light Rain
10:55 PM 70.5 °F 70.5 °F 100% 30.12 in 3.0 mi Calm Calm - N/A Rain Light Rain
11:15 PM 70.7 °F 70.7 °F 100% 30.11 in 3.0 mi Calm Calm - N/A Rain Light Rain
11:35 PM 70.2 °F 70.2 °F 100% 30.11 in 2.0 mi Calm Calm - N/A Rain Light Rain
11:55 PM 70.2 °F 70.2 °F 100% 30.12 in 1.8 mi Calm Calm - N/A Rain Rain